Regional Weather Roundup
Issued by NWS Cleveland, OH

Home | Current Version | Previous Version | Graphics & Text | Print | Product List | Glossary On
Versions: 1 2 3 4 5 6 7 8 9 10 11 12 13 14 15 16 17 18 19 20 21 22 23 24 25 26 27 28 29 30 31 32 33 34 35 36 37 38 39 40 41 42 43 44 45 46 47 48 49 50
000
ASUS41 KCLE 011400
RWRCLE
OHIO REGIONAL WEATHER ROUNDUP
NATIONAL WEATHER SERVICE WILMINGTON, OH
1000 AM EDT FRI AUG 01 2014

NOTE: "FAIR" INDICATES FEW OR NO CLOUDS BELOW 12,000 FEET WITH NO
SIGNIFICANT WEATHER AND/OR OBSTRUCTIONS TO VISIBILITY.

OHZ001>008-015>018-024>027-034-035-043-044-011500-
   NORTHWEST OHIO

CITY           SKY/WX    TMP DP  RH WIND       PRES   REMARKS
DEFIANCE       SUNNY     72  63  73 SW6       30.12S
FINDLAY        SUNNY     74  62  66 VRB3      30.12F
TOLEDO EXPRESS SUNNY     73  62  68 SW7       30.11F
TOLEDO METCALF SUNNY     72  61  68 SW6       30.12S
LIMA           SUNNY     72  63  73 CALM      30.13F
$$

OHZ009>014-019>023-028>033-038-089-011500-
   NORTHEAST OHIO

CITY           SKY/WX    TMP DP  RH WIND       PRES   REMARKS
CLE-HOPKINS    SUNNY     72  61  68 SW5       30.14F
CLE-LAKEFRONT  SUNNY     75  59  57 S3        30.11S
CUY CO. ARPT   SUNNY     77  63  61 W7        30.14S
LORAIN-ELYRIA  SUNNY     75  62  64 SW3       30.13F
ASHTABULA      SUNNY     73  62  68 CALM      30.15S
AKRON-CANTON   SUNNY     74  62  66 SW6       30.15F
WOOSTER        NOT AVBL
MANSFIELD      SUNNY     74  59  59 S3        30.15F
YOUNGSTOWN     MOSUNNY   71  62  73 CALM      30.16F
$$

OHZ042-051>053-060>062-070>072-077>081-011500-
  SOUTHWEST OHIO

CITY           SKY/WX    TMP DP  RH WIND       PRES   REMARKS
CINC-COVINGTON MOSUNNY   76  62  62 N3        30.13S
CINC-LUNKEN    SUNNY     68  66  93 CALM      30.12F
HAMILTON       SUNNY     74  64  71 CALM      30.13S
DAYTON         NOT AVBL
WRIGHT-PAT AFB DRIZZLE   72  63  73 VRB3      30.14S
DAYTON GENERAL SUNNY     75  62  64 VRB3      30.13S
WILMINGTON     SUNNY     76  65  68 CALM      30.13S
$$

OHZ036-037-039>041-045>050-054>059-063>069-073>076-082>088-011500-
  CENTRAL AND SOUTHEAST OHIO

CITY           SKY/WX    TMP DP  RH WIND       PRES   REMARKS
COLUMBUS       SUNNY     77  62  59 CALM      30.12F
OSU AIRPORT    SUNNY     74  62  66 CALM      30.13F
BOLTON FIELD   SUNNY     72  64  78 CALM      30.14S
RICKENBACK AFB NOT AVBL
NEWARK         SUNNY     73  63  70 CALM      30.13F
MARION         SUNNY     72  63  73 S5        30.14F
LANCASTER      SUNNY     74  62  66 CALM      30.14S
ZANESVILLE     SUNNY     72  62  71 SE3       30.15S
NEW PHILLY     SUNNY     71  65  81 SE3       30.15F
$$


USA.gov is the U.S. government's official web portal to all federal, state and local government web resources and services.